| time (UTC) | temp F | wind direction | speed MPH | gust MPH | rain 1hr in | rain 24hr in | rain mn in | humidity % | barometer mb |
| 20260508012538 | 45 | 0.0 | 1.0 | 0.00 | 0.00 | 0.00 | 54 | 1011.5 | |
| 20260508011537 | 46 | 0.0 | 1.0 | 0.00 | 0.00 | 0.00 | 50 | 1011.4 | |
| 20260508010517 | 47 | 0.0 | 1.0 | 0.00 | 0.00 | 0.00 | 48 | 1011.5 | |
| 20260508005517 | 48 | 315 | 2.0 | 3.0 | 0.00 | 0.00 | 0.00 | 48 | 1011.6 |
| 20260508004537 | 49 | 315 | 3.0 | 6.0 | 0.00 | 0.00 | 0.00 | 47 | 1011.5 |
| 20260508003537 | 49 | 315 | 5.0 | 8.0 | 0.00 | 0.00 | 0.00 | 48 | 1011.5 |
| 20260508002517 | 50 | 293 | 5.0 | 8.0 | 0.00 | 0.00 | 0.00 | 46 | 1011.3 |
| 20260508001519 | 51 | 270 | 6.0 | 8.0 | 0.00 | 0.00 | 0.00 | 43 | 1011.2 |
| 20260508000520 | 51 | 293 | 7.0 | 12.0 | 0.00 | 0.00 | 0.00 | 43 | 1011.2 |
| 20260507235517 | 50 | 270 | 3.0 | 5.0 | 0.00 | 0.00 | 0.00 | 48 | 1011.3 |
| 20260507234517 | 50 | 270 | 2.0 | 4.0 | 0.00 | 0.00 | 0.00 | 45 | 1011.2 |
| 20260507233518 | 50 | 293 | 2.0 | 4.0 | 0.00 | 0.00 | 0.00 | 47 | 1011.2 |
| 20260507232517 | 50 | 270 | 5.0 | 6.0 | 0.00 | 0.00 | 0.00 | 47 | 1011.0 |
| 20260507231537 | 51 | 248 | 6.0 | 8.0 | 0.00 | 0.00 | 0.00 | 44 | 1010.9 |
| 20260507230519 | 51 | 270 | 8.0 | 11.0 | 0.00 | 0.00 | 0.00 | 42 | 1011.0 |
| 20260507225518 | 52 | 270 | 4.0 | 7.0 | 0.00 | 0.00 | 0.00 | 44 | 1011.1 |
| 20260507224517 | 51 | 270 | 6.0 | 11.0 | 0.00 | 0.00 | 0.00 | 42 | 1011.2 |
| 20260507223517 | 51 | 293 | 7.0 | 13.0 | 0.00 | 0.00 | 0.00 | 46 | 1011.1 |
| 20260507222517 | 52 | 248 | 6.0 | 8.0 | 0.00 | 0.00 | 0.00 | 42 | 1011.1 |
| 20260507221517 | 52 | 270 | 6.0 | 11.0 | 0.00 | 0.00 | 0.00 | 45 | 1011.1 |
| 20260507220517 | 51 | 270 | 10.0 | 13.0 | 0.00 | 0.00 | 0.00 | 41 | 1011.2 |
| 20260507215537 | 51 | 270 | 4.0 | 8.0 | 0.00 | 0.00 | 0.00 | 44 | 1011.2 |
| 20260507214523 | 51 | 270 | 6.0 | 9.0 | 0.00 | 0.00 | 0.00 | 44 | 1011.2 |
| 20260507213523 | 51 | 293 | 6.0 | 12.0 | 0.00 | 0.00 | 0.00 | 44 | 1011.2 |
| 20260507212516 | 52 | 270 | 8.0 | 11.0 | 0.00 | 0.00 | 0.00 | 44 | 1011.1 |
| 20260507211517 | 52 | 248 | 2.0 | 4.0 | 0.00 | 0.00 | 0.00 | 44 | 1011.1 |
| 20260507210536 | 51 | 270 | 7.0 | 10.0 | 0.00 | 0.00 | 0.00 | 43 | 1011.2 |
| 20260507205517 | 51 | 270 | 6.0 | 12.0 | 0.00 | 0.00 | 0.00 | 44 | 1011.3 |
| 20260507204518 | 51 | 270 | 4.0 | 8.0 | 0.00 | 0.00 | 0.00 | 46 | 1011.4 |
| 20260507203518 | 51 | 293 | 6.0 | 12.0 | 0.00 | 0.00 | 0.00 | 44 | 1011.4 |
| 20260507202518 | 50 | 270 | 4.0 | 8.0 | 0.00 | 0.00 | 0.00 | 43 | 1011.5 |
| 20260507201537 | 51 | 270 | 7.0 | 13.0 | 0.00 | 0.00 | 0.00 | 47 | 1011.5 |
| 20260507200537 | 50 | 270 | 9.0 | 13.0 | 0.00 | 0.00 | 0.00 | 44 | 1011.7 |
| 20260507195516 | 51 | 248 | 9.0 | 14.0 | 0.00 | 0.00 | 0.00 | 44 | 1011.8 |
| 20260507194516 | 51 | 270 | 4.0 | 7.0 | 0.00 | 0.00 | 0.00 | 40 | 1011.9 |
| 20260507193516 | 51 | 293 | 6.0 | 9.0 | 0.00 | 0.00 | 0.00 | 46 | 1012.1 |
| 20260507192516 | 52 | 225 | 6.0 | 15.0 | 0.00 | 0.00 | 0.00 | 46 | 1011.9 |
| 20260507191517 | 50 | 248 | 9.0 | 13.0 | 0.00 | 0.00 | 0.00 | 45 | 1012.1 |
| 20260507190516 | 51 | 248 | 11.0 | 15.0 | 0.00 | 0.00 | 0.00 | 48 | 1012.1 |
| 20260507185517 | 50 | 225 | 11.0 | 15.0 | 0.00 | 0.00 | 0.00 | 43 | 1012.1 |
| 20260507184517 | 50 | 248 | 11.0 | 15.0 | 0.00 | 0.00 | 0.00 | 46 | 1012.2 |
| 20260507183516 | 50 | 225 | 12.0 | 17.0 | 0.00 | 0.00 | 0.00 | 46 | 1012.3 |
| 20260507182516 | 50 | 225 | 9.0 | 16.0 | 0.00 | 0.00 | 0.00 | 46 | 1012.3 |
| 20260507181516 | 50 | 225 | 8.0 | 11.0 | 0.00 | 0.00 | 0.00 | 48 | 1012.4 |
| 20260507180558 | 50 | 225 | 10.0 | 17.0 | 0.00 | 0.00 | 0.00 | 48 | 1012.5 |
| 20260507175537 | 51 | 225 | 11.0 | 15.0 | 0.00 | 0.00 | 0.00 | 52 | 1012.6 |
| 20260507174538 | 49 | 248 | 8.0 | 15.0 | 0.00 | 0.00 | 0.00 | 49 | 1012.6 |
| 20260507173517 | 49 | 203 | 7.0 | 14.0 | 0.00 | 0.00 | 0.00 | 48 | 1012.7 |
| 20260507172516 | 50 | 225 | 7.0 | 12.0 | 0.00 | 0.00 | 0.00 | 48 | 1012.9 |
| 20260507171516 | 50 | 225 | 10.0 | 17.0 | 0.00 | 0.00 | 0.00 | 49 | 1012.8 |
| 20260507170516 | 51 | 203 | 5.0 | 12.0 | 0.00 | 0.00 | 0.00 | 48 | 1013.1 |
| 20260507165536 | 50 | 225 | 7.0 | 14.0 | 0.00 | 0.00 | 0.00 | 51 | 1013.2 |
| 20260507164516 | 49 | 225 | 4.0 | 9.0 | 0.00 | 0.00 | 0.00 | 49 | 1013.3 |
| 20260507163516 | 49 | 225 | 9.0 | 13.0 | 0.00 | 0.00 | 0.00 | 50 | 1013.5 |
| 20260507162516 | 49 | 225 | 7.0 | 14.0 | 0.00 | 0.00 | 0.00 | 47 | 1013.5 |
| 20260507161517 | 49 | 225 | 6.0 | 11.0 | 0.00 | 0.00 | 0.00 | 47 | 1013.7 |
| 20260507160518 | 49 | 225 | 8.0 | 14.0 | 0.00 | 0.00 | 0.00 | 48 | 1013.8 |
| 20260507155516 | 49 | 248 | 6.0 | 12.0 | 0.00 | 0.00 | 0.00 | 46 | 1013.9 |
| 20260507154516 | 48 | 248 | 7.0 | 10.0 | 0.00 | 0.00 | 0.00 | 46 | 1014.1 |
| 20260507153516 | 47 | 225 | 5.0 | 9.0 | 0.00 | 0.00 | 0.00 | 49 | 1014.1 |
| 20260507152516 | 47 | 248 | 9.0 | 13.0 | 0.00 | 0.00 | 0.00 | 47 | 1014.3 |
| 20260507151516 | 48 | 248 | 5.0 | 10.0 | 0.00 | 0.00 | 0.00 | 50 | 1014.5 |
| 20260507150516 | 47 | 248 | 5.0 | 10.0 | 0.00 | 0.00 | 0.00 | 50 | 1014.5 |
| 20260507145536 | 46 | 248 | 7.0 | 11.0 | 0.00 | 0.00 | 0.00 | 52 | 1014.6 |
| 20260507144517 | 46 | 248 | 7.0 | 11.0 | 0.00 | 0.00 | 0.00 | 55 | 1014.8 |
| 20260507143518 | 46 | 270 | 7.0 | 12.0 | 0.00 | 0.00 | 0.00 | 56 | 1014.7 |
| 20260507142517 | 45 | 270 | 7.0 | 13.0 | 0.00 | 0.00 | 0.00 | 59 | 1014.8 |
| 20260507141516 | 44 | 248 | 7.0 | 9.0 | 0.00 | 0.00 | 0.00 | 60 | 1014.8 |
| 20260507140516 | 44 | 248 | 7.0 | 10.0 | 0.00 | 0.00 | 0.00 | 63 | 1014.9 |
| 20260507135516 | 42 | 225 | 7.0 | 10.0 | 0.00 | 0.00 | 0.00 | 65 | 1015.0 |
| 20260507134516 | 41 | 248 | 8.0 | 10.0 | 0.00 | 0.00 | 0.00 | 66 | 1015.0 |
| 20260507133516 | 41 | 225 | 6.0 | 7.0 | 0.00 | 0.00 | 0.00 | 70 | 1015.0 |
| 20260507132516 | 40 | 225 | 3.0 | 6.0 | 0.00 | 0.00 | 0.00 | 71 | 1014.9 |
| 20260507131518 | 39 | 225 | 5.0 | 7.0 | 0.00 | 0.00 | 0.00 | 72 | 1015.0 |
| 20260507130536 | 39 | 225 | 5.0 | 8.0 | 0.00 | 0.00 | 0.00 | 72 | 1015.1 |
| 20260507125516 | 38 | 225 | 4.0 | 6.0 | 0.00 | 0.00 | 0.00 | 74 | 1015.1 |
| 20260507124516 | 38 | 225 | 5.0 | 8.0 | 0.00 | 0.00 | 0.00 | 74 | 1015.2 |
| 20260507123516 | 38 | 225 | 6.0 | 8.0 | 0.00 | 0.00 | 0.00 | 74 | 1015.2 |
| 20260507122516 | 37 | 225 | 7.0 | 9.0 | 0.00 | 0.00 | 0.00 | 73 | 1015.1 |
| 20260507121536 | 37 | 225 | 6.0 | 9.0 | 0.00 | 0.00 | 0.00 | 75 | 1015.1 |
| 20260507120516 | 37 | 225 | 5.0 | 6.0 | 0.00 | 0.00 | 0.00 | 76 | 1014.9 |
| 20260507115516 | 37 | 225 | 6.0 | 8.0 | 0.00 | 0.00 | 0.00 | 75 | 1014.9 |
| 20260507114517 | 36 | 248 | 3.0 | 5.0 | 0.00 | 0.00 | 0.00 | 76 | 1014.9 |
| 20260507113519 | 36 | 248 | 3.0 | 4.0 | 0.00 | 0.00 | 0.00 | 74 | 1014.6 |
| 20260507112516 | 35 | 248 | 3.0 | 4.0 | 0.00 | 0.00 | 0.00 | 76 | 1014.4 |
| 20260507111516 | 34 | 248 | 3.0 | 4.0 | 0.00 | 0.00 | 0.00 | 78 | 1014.3 |
| 20260507110516 | 33 | 225 | 2.0 | 3.0 | 0.00 | 0.00 | 0.00 | 78 | 1014.2 |
| 20260507105516 | 33 | 225 | 2.0 | 3.0 | 0.00 | 0.00 | 0.00 | 78 | 1014.3 |
| 20260507104516 | 33 | 225 | 3.0 | 3.0 | 0.00 | 0.00 | 0.00 | 78 | 1014.2 |
| 20260507103516 | 33 | 225 | 3.0 | 4.0 | 0.00 | 0.00 | 0.00 | 78 | 1014.3 |
| 20260507102515 | 33 | 225 | 3.0 | 4.0 | 0.00 | 0.00 | 0.00 | 78 | 1014.2 |
| 20260507101516 | 33 | 225 | 2.0 | 3.0 | 0.00 | 0.00 | 0.00 | 78 | 1014.3 |
| 20260507100516 | 33 | 225 | 2.0 | 3.0 | 0.00 | 0.00 | 0.00 | 77 | 1014.2 |
| 20260507095515 | 33 | 248 | 3.0 | 3.0 | 0.00 | 0.00 | 0.00 | 77 | 1014.3 |
| 20260507094516 | 33 | 248 | 3.0 | 4.0 | 0.00 | 0.00 | 0.00 | 77 | 1014.4 |
| 20260507093516 | 32 | 225 | 2.0 | 3.0 | 0.00 | 0.00 | 0.00 | 79 | 1014.4 |
| 20260507092516 | 32 | 225 | 2.0 | 2.0 | 0.00 | 0.00 | 0.00 | 79 | 1014.4 |
| 20260507091517 | 33 | 225 | 2.0 | 3.0 | 0.00 | 0.00 | 0.00 | 79 | 1014.4 |
| 20260507090517 | 33 | 225 | 2.0 | 4.0 | 0.00 | 0.00 | 0.00 | 79 | 1014.5 |
| 20260507085517 | 33 | 225 | 2.0 | 4.0 | 0.00 | 0.00 | 0.00 | 79 | 1014.5 |
| 20260507084537 | 33 | 225 | 2.0 | 4.0 | 0.00 | 0.00 | 0.00 | 77 | 1014.6 |
| 20260507083518 | 33 | 225 | 2.0 | 3.0 | 0.00 | 0.00 | 0.00 | 77 | 1014.7 |
| 20260507082518 | 33 | 225 | 3.0 | 4.0 | 0.00 | 0.00 | 0.00 | 78 | 1014.5 |
| 20260507081517 | 33 | 225 | 2.0 | 3.0 | 0.00 | 0.00 | 0.00 | 78 | 1014.5 |
| 20260507080517 | 33 | 225 | 2.0 | 3.0 | 0.00 | 0.00 | 0.00 | 77 | 1014.4 |
| 20260507075517 | 34 | 225 | 1.0 | 2.0 | 0.00 | 0.00 | 0.00 | 77 | 1014.4 |
| 20260507074521 | 34 | 225 | 1.0 | 2.0 | 0.00 | 0.00 | 0.00 | 76 | 1014.4 |
| 20260507073537 | 34 | 225 | 2.0 | 3.0 | 0.00 | 0.00 | 0.00 | 75 | 1014.4 |
| 20260507072517 | 34 | 225 | 2.0 | 4.0 | 0.00 | 0.00 | 0.00 | 74 | 1014.5 |
| 20260507071517 | 35 | 225 | 2.0 | 3.0 | 0.00 | 0.00 | 0.00 | 75 | 1014.7 |
| 20260507070517 | 36 | 225 | 2.0 | 4.0 | 0.00 | 0.00 | 0.00 | 73 | 1014.8 |
| 20260507065517 | 37 | 225 | 3.0 | 4.0 | 0.00 | 0.00 | 0.00 | 70 | 1015.0 |
| 20260507064538 | 38 | 248 | 3.0 | 4.0 | 0.00 | 0.00 | 0.00 | 69 | 1015.0 |
| 20260507063518 | 38 | 248 | 3.0 | 4.0 | 0.00 | 0.00 | 0.00 | 69 | 1015.2 |
| 20260507062517 | 38 | 248 | 3.0 | 4.0 | 0.00 | 0.00 | 0.00 | 70 | 1015.3 |
| 20260507061517 | 38 | 248 | 3.0 | 3.0 | 0.00 | 0.00 | 0.00 | 69 | 1015.5 |
| 20260507060517 | 38 | 248 | 3.0 | 4.0 | 0.00 | 0.00 | 0.00 | 68 | 1015.5 |
| 20260507055537 | 38 | 248 | 3.0 | 4.0 | 0.00 | 0.00 | 0.00 | 67 | 1015.5 |
| 20260507054517 | 38 | 248 | 3.0 | 4.0 | 0.00 | 0.00 | 0.00 | 66 | 1015.7 |
| 20260507053518 | 38 | 248 | 3.0 | 3.0 | 0.00 | 0.00 | 0.00 | 67 | 1015.7 |
| 20260507052517 | 38 | 248 | 3.0 | 4.0 | 0.00 | 0.00 | 0.00 | 67 | 1015.8 |
| 20260507051517 | 38 | 248 | 3.0 | 4.0 | 0.00 | 0.00 | 0.00 | 67 | 1015.9 |
| 20260507050517 | 38 | 248 | 3.0 | 4.0 | 0.00 | 0.00 | 0.00 | 66 | 1015.9 |
| 20260507045517 | 38 | 248 | 3.0 | 3.0 | 0.00 | 0.00 | 0.00 | 65 | 1015.9 |
| 20260507044518 | 38 | 225 | 2.0 | 3.0 | 0.00 | 0.00 | 0.00 | 64 | 1016.0 |
| 20260507043518 | 38 | 248 | 3.0 | 4.0 | 0.00 | 0.00 | 0.00 | 65 | 1016.0 |
| 20260507042517 | 38 | 248 | 3.0 | 4.0 | 0.00 | 0.00 | 0.00 | 64 | 1015.8 |
| 20260507041517 | 38 | 270 | 4.0 | 4.0 | 0.00 | 0.00 | 0.00 | 65 | 1015.9 |
| 20260507040522 | 38 | 248 | 4.0 | 4.0 | 0.00 | 0.00 | 0.00 | 66 | 1015.8 |
| 20260507035517 | 39 | 248 | 4.0 | 4.0 | 0.00 | 0.00 | 0.00 | 65 | 1015.7 |
| 20260507034517 | 39 | 270 | 3.0 | 4.0 | 0.00 | 0.00 | 0.00 | 65 | 1015.6 |
| 20260507033517 | 39 | 270 | 3.0 | 4.0 | 0.00 | 0.00 | 0.00 | 65 | 1015.6 |
| 20260507032517 | 39 | 248 | 4.0 | 5.0 | 0.00 | 0.00 | 0.00 | 65 | 1015.7 |
| 20260507031519 | 39 | 248 | 4.0 | 4.0 | 0.00 | 0.00 | 0.00 | 66 | 1015.6 |
| 20260507030517 | 39 | 248 | 4.0 | 5.0 | 0.00 | 0.00 | 0.00 | 65 | 1015.7 |
| 20260507025517 | 40 | 270 | 4.0 | 6.0 | 0.00 | 0.00 | 0.00 | 64 | 1015.7 |
| 20260507024517 | 40 | 270 | 4.0 | 6.0 | 0.00 | 0.00 | 0.00 | 62 | 1015.6 |
| 20260507023537 | 40 | 270 | 5.0 | 7.0 | 0.00 | 0.00 | 0.00 | 63 | 1015.6 |
| 20260507022517 | 40 | 270 | 5.0 | 6.0 | 0.00 | 0.00 | 0.00 | 63 | 1015.5 |
| 20260507021537 | 40 | 248 | 5.0 | 6.0 | 0.00 | 0.00 | 0.00 | 65 | 1015.3 |
| 20260507020520 | 40 | 248 | 5.0 | 6.0 | 0.00 | 0.00 | 0.00 | 66 | 1015.3 |
| 20260507015558 | 40 | 248 | 5.0 | 6.0 | 0.00 | 0.00 | 0.00 | 67 | 1015.2 |
| 20260507014517 | 40 | 248 | 5.0 | 6.0 | 0.00 | 0.00 | 0.00 | 67 | 1015.0 |
| 20260507013517 | 41 | 248 | 5.0 | 5.0 | 0.00 | 0.00 | 0.00 | 66 | 1014.8 |